Mt. Laguna (440) Station Data

Red Flag Warning: No
Fire Weather Zone: 258
SDGE Region: Mountain Empire
Lat/Lon: 32.878/-116.424

Observations

Time Wind Speed/Gust Temp(F) RH Fuel Moist Fuel Temp(F) Dewpt(F) Tmax(F) Tmin(F) Accum Precip 10-min Precip SL Press(mb)
6/22 5:00am 222 3 G 4 75° 8% - - 11° 77.9° 73.5° - - 861.0
6/22 4:50am 219 3 G 5 75° 8% - - 10° 77.9° 73.5° - - 861.0
6/22 4:40am 218 3 G 6 75° 8% - - 10° 77.9° 73.5° - - 861.0
6/22 4:30am 220 3 G 6 75° 8% - - 11° 77.9° 73.5° - - 861.0
6/22 4:20am 223 2 G 4 74° 9% - - 12° 77.9° 73.5° - - 861.0
6/22 4:10am 226 2 G 4 75° 9% - - 13° 77.9° 73.5° - - 861.0
6/22 4:00am 225 2 G 4 75° 9% - - 13° 77.9° 74.6° - - 861.0
6/22 3:50am 220 2 G 4 75° 9% - - 13° 77.9° 74.6° - - 861.0
6/22 3:40am 221 2 G 4 75° 9% - - 12° 77.9° 74.6° - - 861.0
6/22 3:30am 223 2 G 5 76° 9% - - 12° 77.9° 75.2° - - 861.0
6/22 3:20am 218 3 G 5 76° 8% - - 12° 77.9° 75.6° - - 861.0
6/22 3:10am 223 3 G 5 76° 8% - - 12° 77.9° 75.6° - - 861.0
6/22 3:00am 226 3 G 6 76° 8% - - 12° 77.9° 75.6° - - 861.0
6/22 2:50am 225 2 G 5 76° 8% - - 11° 77.9° 75.6° - - 861.0
6/22 2:40am 228 2 G 5 76° 8% - - 10° 77.9° 76.1° - - 861.0
6/22 2:30am 226 3 G 5 77° 7% - - 77.9° 76.2° - - 861.0
6/22 2:20am 226 3 G 5 76° 7% - - 77.9° 76.2° - - 861.0
6/22 2:10am 226 3 G 5 77° 7% - - 77.9° 76.3° - - 861.0
6/22 2:00am 229 3 G 5 77° 7% - - 77.9° 76.5° - - 861.0
6/22 1:50am 227 3 G 5 77° 6% - - 77.9° 76.7° - - 861.0
6/22 1:40am 229 3 G 5 77° 6% - - 77.9° 76.8° - - 861.0
6/22 1:30am 225 3 G 6 77° 6% - - 77.9° 76.9° - - 861.0
6/22 1:20am 220 3 G 6 77° 6% - - 77.9° 76.9° - - 861.0
6/22 1:10am 226 3 G 6 77° 7% - - 77.9° 76.9° - - 861.0
6/22 1:00am 224 3 G 7 78° 7% - - 77.9° 76.9° - - 861.0
6/22 12:50am 225 3 G 8 77° 6% - - 77.7° 76.9° - - 861.0
6/22 12:40am 224 3 G 7 77° 6% - - 77.7° 76.9° - - 860.0
6/22 12:30am 223 3 G 5 77° 5% - - 77.7° 76.9° - - 860.0
6/22 12:20am 222 4 G 7 77° 5% - - 77.6° 76.9° - - 860.0
6/22 12:10am 224 4 G 8 77° 6% - - 77.5° 77° - - 861.0
6/22 12:00am 222 3 G 9 77° 6% - - 91.2° 70.4° - - 861.0
6/21 11:50pm 222 3 G 6 77° 7% - - 91.2° 70.4° - - 861.0
6/21 11:40pm 216 3 G 7 77° 6% - - 91.2° 70.4° - - 861.0
6/21 11:30pm 217 3 G 8 77° 6% - - 91.2° 70.4° - - 861.0
6/21 11:20pm 219 3 G 8 77° 7% - - 91.2° 70.4° - - 861.0
6/21 11:10pm 214 3 G 7 77° 7% - - 91.2° 70.4° - - 861.0
6/21 11:00pm 216 3 G 8 77° 7% - - 91.2° 70.4° - - 861.0
6/21 10:50pm 213 2 G 6 77° 7% - - 91.2° 70.4° - - 861.0
6/21 10:40pm 213 3 G 7 77° 7% - - 91.2° 70.4° - - 861.0
6/21 10:30pm 214 2 G 6 77° 7% - - 91.2° 70.4° - - 861.0
6/21 10:20pm 222 3 G 7 77° 7% - - 91.2° 70.4° - - 861.0
6/21 10:10pm 226 2 G 5 77° 7% - - 91.2° 70.4° - - 861.0
6/21 10:00pm 221 2 G 8 77° 7% - - 91.2° 70.4° - - 861.0
6/21 9:50pm 225 2 G 6 77° 8% - - 10° 91.2° 70.4° - - 861.0
6/21 9:40pm 228 2 G 4 77° 8% - - 11° 91.2° 70.4° - - 861.0
6/21 9:30pm 228 3 G 7 77° 8% - - 11° 91.2° 70.4° - - 861.0
6/21 9:20pm 229 2 G 4 77° 8% - - 12° 91.2° 70.4° - - 861.0
6/21 9:10pm 227 2 G 5 77° 8% - - 13° 91.2° 70.4° - - 862.0
6/21 9:00pm 221 2 G 8 77° 9% - - 14° 91.2° 70.4° - - 862.0
6/21 8:50pm 228 2 G 5 77° 9% - - 14° 91.2° 70.4° - - 862.0
6/21 8:40pm 228 2 G 5 77° 9% - - 15° 91.2° 70.4° - - 862.0
6/21 8:30pm 226 2 G 5 77° 10% - - 16° 91.2° 70.4° - - 862.0
6/21 8:20pm 228 2 G 5 77° 10% - - 16° 91.2° 70.4° - - 862.0
6/21 8:10pm 227 2 G 6 78° 10% - - 17° 91.2° 70.4° - - 863.0
6/21 8:00pm 223 2 G 4 78° 11% - - 19° 91.2° 70.4° - - 863.0
6/21 7:50pm 222 3 G 5 78° 12% - - 22° 91.2° 70.4° - - 864.0
6/21 7:40pm 227 3 G 5 78° 14% - - 25° 91.2° 70.4° - - 864.0
6/21 7:30pm 226 3 G 6 79° 16% - - 28° 91.2° 70.4° - - 865.0
6/21 7:20pm 227 3 G 5 79° 16% - - 29° 91.2° 70.4° - - 865.0
6/21 7:10pm 224 3 G 7 80° 17% - - 31° 91.2° 70.4° - - 866.0
6/21 7:00pm 216 3 G 5 80° 18% - - 33° 91.2° 70.4° - - 866.0
6/21 6:50pm 218 3 G 8 81° 17% - - 32° 91.2° 70.4° - - 866.0
6/21 6:40pm 223 3 G 8 81° 17% - - 32° 91.2° 70.4° - - 866.0
6/21 6:30pm 212 3 G 8 82° 13% - - 27° 91.2° 70.4° - - 865.0
6/21 6:20pm 218 3 G 8 82° 14% - - 28° 91.2° 70.4° - - 865.0
6/21 6:10pm 230 4 G 7 83° 14% - - 29° 91.2° 70.4° - - 866.0
6/21 6:00pm 236 3 G 10 83° 13% - - 27° 91.2° 70.4° - - 865.0
6/21 5:50pm 227 3 G 7 84° 13% - - 28° 91.2° 70.4° - - 866.0
6/21 5:40pm 226 4 G 8 84° 13% - - 27° 91.2° 70.4° - - 865.0
6/21 5:30pm 221 3 G 8 84° 12% - - 26° 91.2° 70.4° - - 865.0
6/21 5:20pm 224 4 G 9 84° 11% - - 24° 91.2° 70.4° - - 865.0
6/21 5:10pm 230 4 G 9 85° 11% - - 24° 91.2° 70.4° - - 865.0
6/21 5:00pm 219 3 G 8 86° 12% - - 26° 91.2° 70.4° - - 866.0
6/21 4:50pm 217 3 G 7 87° 11% - - 27° 91.2° 70.4° - - 866.0
6/21 4:40pm 223 2 G 5 87° 11% - - 27° 91.2° 70.4° - - 866.0
6/21 4:30pm 239 3 G 8 87° 11% - - 26° 91.2° 70.4° - - 866.0
6/21 4:20pm 216 4 G 8 87° 11% - - 26° 91.2° 70.4° - - 866.0
6/21 4:10pm 199 3 G 10 88° 11% - - 27° 91.2° 70.4° - - 867.0
6/21 4:00pm 219 3 G 9 88° 10% - - 25° 91.2° 70.4° - - 866.0
6/21 3:50pm 227 3 G 9 88° 11% - - 26° 91.2° 70.4° - - 867.0
6/21 3:40pm 208 3 G 7 88° 11% - - 28° 91.2° 70.4° - - 867.0
6/21 3:30pm 226 2 G 6 89° 12% - - 29° 91.2° 70.4° - - 867.0
6/21 3:20pm 254 2 G 5 89° 12% - - 29° 91.2° 70.4° - - 867.0
6/21 3:10pm 209 2 G 6 89° 11% - - 28° 91.2° 70.4° - - 867.0
6/21 3:00pm 201 2 G 7 89° 11% - - 27° 91.2° 70.4° - - 867.0
6/21 2:50pm 215 3 G 8 90° 11% - - 28° 91.2° 70.4° - - 867.0
6/21 2:40pm 249 1 G 6 90° 11% - - 28° 91.2° 70.4° - - 867.0
6/21 2:30pm 188 2 G 5 89° 11% - - 28° 91.2° 70.4° - - 867.0
6/21 2:20pm 225 2 G 6 89° 10% - - 25° 91.2° 70.4° - - 866.0
6/21 2:10pm 250 2 G 7 89° 10% - - 25° 91.2° 70.4° - - 866.0
6/21 2:00pm 235 2 G 7 89° 10% - - 27° 91.2° 70.4° - - 867.0
6/21 1:50pm 210 2 G 5 90° 9% - - 25° 91.2° 70.4° - - 866.0
6/21 1:40pm 190 1 G 4 90° 11% - - 27° 91° 70.4° - - 867.0
6/21 1:30pm 223 2 G 5 89° 10% - - 25° 90.2° 70.4° - - 866.0
6/21 1:20pm 241 1 G 5 90° 11% - - 28° 90.2° 70.4° - - 867.0
6/21 1:10pm 259 2 G 4 89° 10% - - 26° 90.2° 70.4° - - 866.0
6/21 1:00pm 251 2 G 6 89° 10% - - 25° 90.2° 70.4° - - 866.0
6/21 12:50pm 331 2 G 6 89° 10% - - 26° 90.2° 70.4° - - 867.0
6/21 12:40pm 210 2 G 6 89° 10% - - 26° 90.2° 70.4° - - 866.0
6/21 12:30pm 238 2 G 4 89° 9% - - 24° 90.2° 70.4° - - 866.0
6/21 12:20pm 261 2 G 6 89° 9% - - 23° 90.2° 70.4° - - 866.0
6/21 12:10pm 270 2 G 6 90° 9% - - 23° 90.2° 70.4° - - 866.0
6/21 12:00pm 316 1 G 4 89° 10% - - 25° 90.2° 70.4° - - 866.0
6/21 11:50am 303 1 G 3 89° 10% - - 25° 89.7° 70.4° - - 866.0
6/21 11:40am 156 2 G 5 89° 9% - - 23° 89.6° 70.4° - - 865.0
6/21 11:30am 211 1 G 4 89° 9% - - 23° 89.6° 70.4° - - 866.0
6/21 11:20am 290 1 G 4 89° 10% - - 24° 89.6° 70.4° - - 866.0
6/21 11:10am 261 1 G 4 89° 10% - - 25° 89.6° 70.4° - - 866.0
6/21 11:00am 258 1 G 3 89° 10% - - 25° 89.1° 70.4° - - 866.0
6/21 10:50am 260 1 G 4 87° 9% - - 22° 87.9° 70.4° - - 865.0
6/21 10:40am 312 1 G 4 87° 9% - - 21° 87.7° 70.4° - - 865.0
6/21 10:30am 268 1 G 4 87° 9% - - 22° 87.7° 70.4° - - 865.0
6/21 10:20am 211 1 G 4 87° 9% - - 20° 87.7° 70.4° - - 865.0
6/21 10:10am 211 1 G 4 87° 9% - - 21° 87.7° 70.4° - - 865.0
6/21 10:00am 190 0 G 2 86° 9% - - 20° 87.3° 70.4° - - 864.0
6/21 9:50am 254 1 G 3 85° 8% - - 18° 85.5° 70.4° - - 864.0
6/21 9:40am 235 1 G 3 85° 9% - - 20° 85.3° 70.4° - - 864.0
6/21 9:30am 264 1 G 3 84° 10% - - 22° 84.4° 70.4° - - 864.0
6/21 9:20am 245 1 G 4 84° 9% - - 20° 84.1° 70.4° - - 864.0
6/21 9:10am 254 1 G 5 83° 10% - - 21° 83.7° 70.4° - - 864.0
6/21 9:00am 227 2 G 6 82° 11% - - 22° 82.6° 70.4° - - 864.0
6/21 8:50am 252 1 G 4 82° 13% - - 26° 82.4° 70.4° - - 864.0
6/21 8:40am 198 0 G 2 81° 14% - - 27° 81.8° 70.4° - - 865.0
6/21 8:30am 229 1 G 3 80° 13% - - 24° 80.9° 70.4° - - 864.0
6/21 8:20am 215 1 G 2 79° 16% - - 29° 79.8° 70.4° - - 865.0
6/21 8:10am 199 1 G 2 78° 17% - - 30° 78.7° 70.4° - - 865.0
6/21 8:00am 172 0 G 2 77° 18% - - 30° 78° 70.4° - - 865.0
6/21 7:50am 212 1 G 3 77° 17% - - 29° 77.1° 70.4° - - 864.0
6/21 7:40am 220 2 G 4 77° 14% - - 24° 76.9° 70.4° - - 863.0
6/21 7:30am 226 2 G 4 76° 13% - - 22° 76.6° 70.4° - - 863.0
6/21 7:20am 233 2 G 4 76° 12% - - 20° 76.2° 70.4° - - 862.0
6/21 7:10am 234 2 G 5 75° 12% - - 19° 75.7° 70.4° - - 862.0
6/21 7:00am 232 2 G 5 75° 12% - - 19° 75.1° 70.4° - - 862.0
6/21 6:50am 233 2 G 4 74° 12% - - 18° 74.9° 70.4° - - 862.0
6/21 6:40am 232 2 G 4 74° 11% - - 17° 74.9° 70.4° - - 862.0
6/21 6:30am 235 3 G 5 74° 11% - - 16° 74.9° 70.4° - - 861.0
6/21 6:20am 234 3 G 6 74° 11% - - 15° 74.9° 70.4° - - 861.0
6/21 6:10am 236 3 G 6 73° 10% - - 15° 74.9° 70.4° - - 861.0
6/21 6:00am 237 3 G 7 74° 10% - - 14° 74.9° 70.4° - - 861.0
6/21 5:50am 236 3 G 6 74° 10% - - 14° 74.9° 70.4° - - 861.0
6/21 5:40am 235 3 G 5 74° 10% - - 15° 74.9° 70.4° - - 861.0
6/21 5:30am 237 3 G 6 74° 11% - - 15° 74.9° 70.4° - - 861.0
6/21 5:20am 236 3 G 6 74° 11% - - 15° 74.9° 70.4° - - 861.0
6/21 5:10am 238 3 G 7 74° 10% - - 15° 74.9° 70.4° - - 861.0
6/21 5:00am 236 3 G 5 74° 10% - - 15° 74.9° 70.4° - - 861.0
6/21 4:50am 236 3 G 6 74° 10% - - 15° 74.9° 70.4° - - 861.0
6/21 4:40am 235 3 G 6 75° 10% - - 14° 74.9° 70.4° - - 861.0
6/21 4:30am 236 3 G 7 74° 10% - - 14° 74.9° 70.4° - - 861.0
6/21 4:20am 237 3 G 6 74° 10% - - 14° 74.9° 70.4° - - 861.0
6/21 4:10am 237 3 G 8 74° 10% - - 14° 74.9° 70.4° - - 861.0
6/21 4:00am 237 3 G 6 74° 10% - - 14° 74.9° 70.4° - - 861.0
6/21 3:50am 235 3 G 6 74° 10% - - 14° 74.9° 70.4° - - 861.0
6/21 3:40am 232 3 G 5 74° 10% - - 14° 74.9° 70.4° - - 861.0
6/21 3:30am 231 3 G 5 74° 10% - - 14° 74.9° 70.4° - - 861.0
6/21 3:20am 233 3 G 6 74° 10% - - 14° 74.6° 70.4° - - 861.0
6/21 3:10am 232 3 G 7 74° 10% - - 14° 74.6° 70.4° - - 861.0
6/21 3:00am 237 3 G 5 74° 10% - - 14° 74.5° 70.4° - - 861.0
6/21 2:50am 236 3 G 6 74° 10% - - 14° 74.5° 70.4° - - 861.0
6/21 2:40am 236 3 G 6 74° 10% - - 14° 74.5° 70.4° - - 861.0
6/21 2:30am 238 3 G 5 74° 10% - - 14° 74.5° 70.4° - - 861.0
6/21 2:20am 237 3 G 6 74° 10% - - 14° 74.5° 70.4° - - 861.0
6/21 2:10am 235 3 G 5 74° 10% - - 15° 74.2° 70.4° - - 861.0
6/21 2:00am 230 2 G 5 73° 11% - - 15° 73.9° 70.4° - - 861.0
6/21 1:50am 228 2 G 4 73° 11% - - 16° 73.6° 70.4° - - 861.0
6/21 1:40am 233 2 G 4 73° 11% - - 16° 73.6° 70.4° - - 861.0
6/21 1:30am 224 2 G 5 72° 12% - - 17° 73.5° 70.4° - - 862.0
6/21 1:20am 222 2 G 3 72° 13% - - 19° 73.5° 70.4° - - 862.0
6/21 1:10am 223 2 G 3 73° 14% - - 20° 73.5° 70.4° - - 862.0
6/21 1:00am 226 2 G 4 73° 14% - - 22° 73.5° 70.4° - - 863.0
6/21 12:50am 225 2 G 4 72° 17% - - 25° 73.1° 70.4° - - 863.0
6/21 12:40am 226 2 G 4 72° 18% - - 26° 72.9° 70.4° - - 864.0
6/21 12:30am 224 2 G 4 72° 18% - - 26° 72.7° 70.4° - - 864.0
6/21 12:20am 218 2 G 4 72° 17% - - 24° 72.6° 70.8° - - 863.0
6/21 12:10am 218 2 G 4 71° 17% - - 24° 72.2° 70.8° - - 863.0
6/21 12:00am 214 1 G 4 71° 17% - - 24° 93.2° 66.8° - - 863.0
6/20 11:50pm 221 2 G 4 72° 16% - - 23° 93.2° 66.8° - - 863.0
6/20 11:40pm 215 2 G 4 71° 16% - - 23° 93.2° 66.8° - - 863.0
6/20 11:30pm 203 1 G 4 71° 17% - - 23° 93.2° 66.8° - - 863.0
6/20 11:20pm 215 2 G 3 71° 17% - - 23° 93.2° 66.8° - - 863.0
6/20 11:10pm 214 2 G 4 70° 18% - - 24° 93.2° 66.8° - - 863.0
6/20 11:00pm 193 1 G 3 69° 19% - - 25° 93.2° 66.8° - - 864.0
6/20 10:50pm 212 1 G 3 70° 18% - - 25° 93.2° 66.8° - - 864.0
6/20 10:40pm 201 1 G 3 69° 19% - - 25° 93.2° 66.8° - - 864.0
6/20 10:30pm 208 2 G 3 68° 20% - - 25° 93.2° 66.8° - - 864.0
6/20 10:20pm 197 1 G 2 68° 20% - - 25° 93.2° 66.8° - - 864.0
6/20 10:10pm 197 1 G 3 68° 19% - - 25° 93.2° 66.8° - - 864.0
6/20 10:00pm 165 1 G 2 68° 20% - - 25° 93.2° 66.8° - - 864.0
6/20 9:50pm 170 1 G 2 68° 21% - - 26° 93.2° 66.8° - - 864.0
6/20 9:40pm 162 1 G 2 68° 21% - - 27° 93.2° 66.8° - - 864.0
6/20 9:30pm 196 1 G 2 69° 22% - - 28° 93.2° 66.8° - - 865.0
6/20 9:20pm 195 1 G 2 68° 23% - - 30° 93.2° 66.8° - - 865.0
6/20 9:10pm 177 1 G 2 68° 26% - - 32° 93.2° 66.8° - - 866.0
6/20 9:00pm 201 1 G 3 70° 25% - - 33° 93.2° 66.8° - - 867.0
6/20 8:50pm 202 1 G 2 70° 26% - - 34° 93.2° 66.8° - - 867.0
6/20 8:40pm 181 1 G 2 70° 28% - - 35° 93.2° 66.8° - - 868.0
6/20 8:30pm 191 1 G 2 71° 29% - - 37° 93.2° 66.8° - - 868.0
6/20 8:20pm 210 2 G 3 72° 29% - - 39° 93.2° 66.8° - - 869.0
6/20 8:10pm 210 1 G 3 73° 28% - - 39° 93.2° 66.8° - - 869.0
6/20 8:00pm 209 1 G 3 75° 25% - - 37° 93.2° 66.8° - - 868.0
6/20 7:50pm 221 1 G 3 76° 24% - - 37° 93.2° 66.8° - - 868.0
6/20 7:40pm 223 1 G 2 77° 25% - - 39° 93.2° 66.8° - - 868.0
6/20 7:30pm 224 1 G 3 78° 28% - - 42° 93.2° 66.8° - - 870.0
6/20 7:20pm 233 1 G 3 79° 27% - - 42° 93.2° 66.8° - - 869.0
6/20 7:10pm 244 1 G 3 80° 24% - - 40° 93.2° 66.8° - - 869.0
6/20 7:00pm 237 2 G 4 81° 23% - - 39° 93.2° 66.8° - - 868.0
6/20 6:50pm 236 2 G 5 81° 22% - - 39° 93.2° 66.8° - - 868.0
6/20 6:40pm 237 2 G 4 82° 20% - - 37° 93.2° 66.8° - - 868.0
6/20 6:30pm 235 3 G 6 82° 20% - - 37° 93.2° 66.8° - - 868.0
6/20 6:20pm 239 2 G 6 83° 22% - - 40° 93.2° 66.8° - - 869.0
6/20 6:10pm 245 2 G 5 83° 23% - - 41° 93.2° 66.8° - - 869.0
6/20 6:00pm 263 1 G 4 84° 22% - - 41° 93.2° 66.8° - - 869.0